[[{"header":{"parameterUnit":"m.s-1","parameterCategory":1,"la1":30.2991,"la2":30.254,"lo1":-89.0895,"lo2":-89.0444,"dy":0.0017,"dx":0.0017,"nx":28,"ny":28,"refTime":"2023-07-18T21:00:00:Z","depth":0,"parameterNumber":2,"parameterNumberName":"U-component_of_WINDS"},"data":[0,0,0,0,0,0,0,0,0,0,0,0,0,0,0,0,0,0,0,0,0,0,0,0,0,0,0,0,0,0,0,0,0,0,0,0,0,0,0,0,0,0,0,0,0,0,0,0,0,0,0,0,0,0,0,0,0,0,2.5616,2.5617,0,2.5667,2.5667,2.5668,2.5663,2.5663,2.5662,2.5661,2.5717,2.5719,2.5721,0,0,0,0,0,0,0,0,0,0,0,0,0,2.5519,2.5521,2.5616,2.5617,2.5618,2.5666,2.5667,2.5668,2.5664,2.5663,2.5662,2.5661,2.5716,2.5718,2.5721,0,0,0,0,0,0,0,0,0,0,0,0,0,2.5565,2.5522,2.5616,2.5621,2.5622,2.5666,2.5667,2.5668,2.5664,2.5663,2.5661,2.566,2.5715,2.5718,2.5721,2.5765,0,0,2.5732,2.5733,0,0,0,0,0,0,0,0,2.5562,2.5568,2.562,2.5621,2.5622,2.5657,2.5653,2.5701,2.5664,2.5648,2.5661,2.566,2.5698,2.5703,2.5715,2.5768,2.577,2.5732,2.5734,2.5735,2.5736,0,0,0,0,0,0,0,2.5559,2.5566,2.5636,2.5621,2.5622,2.5622,2.5627,2.5662,2.5679,2.5649,2.5649,2.5655,2.5699,2.5712,2.5716,2.5771,2.5732,2.5735,2.5737,2.5738,2.5862,2.5863,0,0,0,0,0,0,2.5554,2.5564,2.5635,2.5638,2.5589,2.5625,2.563,2.5647,2.5679,2.5682,2.5656,2.5655,2.5707,2.5712,2.5718,2.5771,2.5735,2.5738,2.574,2.586,2.5862,2.5863,0,0,0,0,0,0,2.5552,2.5561,2.5633,2.5601,2.561,2.5627,2.5647,2.5649,2.5662,2.5684,2.5687,2.5666,2.5706,2.5713,2.5753,2.5773,2.574,2.5743,2.5859,2.5861,2.5863,2.5877,0,0,0,0,0,0,2.555,2.556,2.5576,2.5601,2.5611,2.5666,2.5648,2.5651,2.5667,2.5666,2.5694,2.5698,2.5706,2.5748,2.5756,2.5777,2.5745,2.5857,2.586,2.5862,2.5875,2.5879,2.5883,0,0,0,0,0,2.5546,2.5579,2.5577,2.5586,2.5632,2.5667,2.5673,2.5681,2.5669,2.5686,2.5699,2.5697,2.5769,2.5752,2.5761,2.5783,2.5856,2.5859,2.5862,2.5873,2.5878,2.5883,0,0,0,0,0,0,2.5558,2.5583,2.558,2.5622,2.5642,2.5666,2.5688,2.5686,2.5711,2.5709,2.5718,2.5725,2.5764,2.5778,2.5759,2.5827,2.5811,2.5816,2.5817,2.5822,2.5826,2.5822,2.5748,0,0,0,0,0,2.5565,2.5591,2.5611,2.5646,2.5656,2.567,2.5686,2.569,2.5711,2.572,2.5737,2.5759,2.5787,2.5805,2.5832,2.5877,2.5883,2.5896,2.59,2.5903,2.5908,2.5932,2.5938,2.5873,2.5873,2.5873,0,0,2.5581,2.5598,2.5613,2.5649,2.5665,2.5692,2.5678,2.5707,2.5727,2.5725,2.5763,2.5776,2.5802,2.5844,2.5863,2.5856,2.5927,2.5907,2.5909,2.5912,2.5935,2.5941,2.5947,2.5875,2.5875,2.5874,0,0,2.5623,2.5638,2.5669,2.5685,2.5708,2.5717,2.5724,2.5748,2.5756,2.5794,2.5793,2.5818,2.5865,2.5883,2.5899,2.5946,2.5945,2.5955,2.5976,2.6,2.6005,2.6009,2.6026,2.6032,2.5959,2.5959,2.5959,0,2.564,2.568,2.5685,2.5714,2.573,2.5728,2.5759,2.5775,2.5806,2.5818,2.5809,2.5868,2.5885,2.5931,2.5942,2.5955,2.5964,2.5952,2.6003,2.6008,2.6012,2.6028,2.6035,2.596,2.596,2.596,2.596,0,2.5699,2.5726,2.5748,2.5777,2.5796,2.5826,2.5837,2.5855,2.5857,2.5866,2.5905,2.5925,2.5955,2.5967,2.597,2.6013,2.6008,2.6001,2.5986,2.6019,2.6035,2.6041,2.5962,2.5961,2.5961,2.5961,0,0,2.5751,2.5782,2.579,2.5802,2.5828,2.585,2.588,2.5908,2.5923,2.5945,2.5971,2.601,2.6004,2.6021,2.6026,2.6047,2.6083,2.6037,2.6038,2.6045,2.6132,2.6136,2.6143,2.6081,2.6083,2.6084,2.6129,0,2.5796,2.5848,2.5853,2.59,2.5925,2.5923,2.5949,2.5968,2.5978,2.6001,2.6013,2.6041,2.603,2.604,2.6061,2.6074,2.61,2.6071,2.6106,2.6107,2.61,2.6151,2.6157,2.6199,2.6135,2.6136,2.6137,0,2.5855,2.5877,2.5926,2.5947,2.5958,2.5981,2.6007,2.6029,2.6051,2.6056,2.6075,2.6077,2.6108,2.6091,2.6135,2.6115,2.613,2.6138,2.614,2.6144,2.6124,2.6157,2.6213,2.6219,2.6147,2.6146,2.6145,0,2.5888,2.5929,2.5964,2.5975,2.6,2.6017,2.6028,2.6049,2.6065,2.6088,2.6099,2.6125,2.614,2.6161,2.617,2.6157,2.6214,2.6197,2.622,2.622,2.6232,2.6231,2.6291,2.6242,2.6242,2.6241,2.6241,0,2.5937,2.5967,2.5978,2.6,2.6033,2.6039,2.6073,2.6084,2.6101,2.6125,2.6125,2.6148,2.6158,2.6183,2.619,2.6225,2.6232,2.6238,2.624,2.6238,2.6237,2.6248,2.6246,2.6243,2.6243,2.6242,2.6242,0,2.5979,2.5988,2.6025,2.6046,2.6052,2.6076,2.6094,2.6114,2.6124,2.6154,2.6161,2.6176,2.6205,2.6215,2.6251,2.6256,2.6296,2.6296,2.6289,2.6289,2.6311,2.6308,2.638,2.6389,2.6333,2.6334,2.6334,0,2.601,2.6033,2.6055,2.607,2.6082,2.6107,2.6123,2.613,2.6147,2.6173,2.619,2.6218,2.6241,2.6287,2.6302,2.6329,2.6329,2.6352,2.6333,2.633,2.6329,2.6327,2.6329,2.6355,2.6356,2.6356,2.6357,0,2.6064,2.6067,2.6089,2.6113,2.6132,2.6152,2.6171,2.6184,2.6194,2.6213,2.6241,2.6259,2.6294,2.6322,2.6349,2.6362,2.6361,2.6362,2.6369,2.6368,2.6362,2.6365,2.6298,2.6361,2.6361,2.636,2.636,2.636,2.6101,2.6121,2.6139,2.6164,2.6179,2.6197,2.6217,2.6228,2.6251,2.6279,2.6282,2.6313,2.6334,2.637,2.6384,2.6408,2.6402,2.6412,2.6415,2.6417,2.6418,2.6358,2.6414,2.6413,2.6413,2.6413,2.6413,0,2.6154,2.6166,2.6189,2.6215,2.6234,2.623,2.6251,2.6268,2.6295,2.6313,2.6335,2.6368,2.6394,2.6411,2.6438,2.6454,2.6454,2.6461,2.646,2.6463,2.6422,2.6413,2.646,2.646,2.646,2.646,2.646,2.646,2.6184,2.6217,2.6222,2.6263,2.6274,2.6303,2.6315,2.6332,2.6346,2.6382,2.6404,2.6414,2.6431,2.646,2.6484,2.6488,2.6498,2.6505,2.6509,2.6471,2.6466,2.6461,2.6453,2.6507,2.6508,2.6548,2.6548,2.6548]},{"header":{"parameterUnit":"m.s-1","parameterCategory":1,"la1":30.2991,"la2":30.254,"lo1":-89.0895,"lo2":-89.0444,"dy":0.0017,"dx":0.0017,"nx":28,"ny":28,"refTime":"2023-07-18T21:00:00:Z","depth":0,"parameterNumber":3,"parameterNumberName":"V-component_of_WINDS"},"data":[0,0,0,0,0,0,0,0,0,0,0,0,0,0,0,0,0,0,0,0,0,0,0,0,0,0,0,0,0,0,0,0,0,0,0,0,0,0,0,0,0,0,0,0,0,0,0,0,0,0,0,0,0,0,0,0,0,0,0.9503,0.9503,0,0.9512,0.9512,0.9512,0.9513,0.9513,0.9513,0.9512,0.9525,0.9525,0.9525,0,0,0,0,0,0,0,0,0,0,0,0,0,0.9488,0.9488,0.9503,0.9503,0.9503,0.9512,0.9512,0.9512,0.9513,0.9513,0.9512,0.9512,0.9524,0.9525,0.9525,0,0,0,0,0,0,0,0,0,0,0,0,0,0.9495,0.9488,0.9503,0.9504,0.9505,0.9512,0.9512,0.9512,0.9513,0.9513,0.9512,0.9512,0.9524,0.9525,0.9525,0.9533,0,0,0.9527,0.9528,0,0,0,0,0,0,0,0,0.9495,0.9496,0.9504,0.9504,0.9504,0.9511,0.9511,0.9519,0.9513,0.951,0.9512,0.9512,0.952,0.9521,0.9523,0.9533,0.9534,0.9527,0.9528,0.9528,0.9528,0,0,0,0,0,0,0,0.9494,0.9495,0.9506,0.9504,0.9504,0.9505,0.9506,0.9513,0.9516,0.951,0.951,0.9511,0.952,0.9523,0.9524,0.9534,0.9527,0.9528,0.9528,0.9529,0.9549,0.9549,0,0,0,0,0,0,0.9493,0.9495,0.9506,0.9507,0.9499,0.9505,0.9507,0.9509,0.9516,0.9517,0.9511,0.9511,0.9522,0.9523,0.9524,0.9532,0.9528,0.9529,0.9529,0.9549,0.9549,0.9549,0,0,0,0,0,0,0.9493,0.9494,0.9506,0.9501,0.9502,0.9506,0.9509,0.9509,0.9512,0.9517,0.9517,0.9513,0.9522,0.9523,0.953,0.9533,0.9529,0.953,0.9549,0.9549,0.9549,0.9549,0,0,0,0,0,0,0.9492,0.9494,0.9497,0.9501,0.9503,0.9511,0.9509,0.951,0.9512,0.9512,0.9518,0.9519,0.9522,0.9529,0.9531,0.9534,0.953,0.9548,0.9549,0.9549,0.9549,0.9549,0.955,0,0,0,0,0,0.9492,0.9497,0.9497,0.9498,0.9506,0.9511,0.9512,0.9514,0.9513,0.9515,0.9518,0.9519,0.9532,0.953,0.9532,0.9535,0.9548,0.9549,0.9549,0.9549,0.9549,0.955,0,0,0,0,0,0,0.9494,0.9498,0.9497,0.9504,0.9507,0.9511,0.9515,0.9515,0.9519,0.9519,0.9522,0.9524,0.953,0.9533,0.9531,0.9541,0.954,0.9541,0.9539,0.954,0.954,0.9539,0.9531,0,0,0,0,0,0.9495,0.9499,0.9502,0.9508,0.9509,0.9512,0.9514,0.9515,0.9519,0.9521,0.9524,0.9529,0.9533,0.9537,0.9542,0.9549,0.955,0.9552,0.9552,0.9553,0.9553,0.9557,0.9557,0.955,0.955,0.955,0,0,0.9498,0.9501,0.9503,0.9508,0.9511,0.9515,0.9513,0.9518,0.9521,0.9522,0.9528,0.9531,0.9536,0.9542,0.9546,0.9545,0.9555,0.9553,0.9553,0.9554,0.9557,0.9558,0.9558,0.9551,0.9551,0.9551,0,0,0.9505,0.9507,0.9512,0.9514,0.9517,0.9519,0.952,0.9523,0.9525,0.9531,0.9531,0.9535,0.9544,0.9547,0.955,0.9556,0.9557,0.9558,0.956,0.9563,0.9564,0.9564,0.9566,0.9567,0.9558,0.9558,0.9558,0,0.9509,0.9514,0.9514,0.9518,0.952,0.952,0.9524,0.9527,0.9532,0.9534,0.9533,0.9543,0.9546,0.9553,0.9554,0.9557,0.9558,0.9557,0.9563,0.9564,0.9564,0.9566,0.9567,0.9558,0.9558,0.9558,0.9558,0,0.9517,0.9521,0.9524,0.9528,0.953,0.9535,0.9536,0.9538,0.9539,0.954,0.9546,0.955,0.9555,0.9557,0.9558,0.9563,0.9563,0.9563,0.9561,0.9565,0.9567,0.9567,0.9558,0.9558,0.9558,0.9558,0,0,0.9527,0.953,0.9531,0.9532,0.9535,0.9538,0.9542,0.9546,0.9548,0.9551,0.9554,0.9561,0.956,0.9563,0.9564,0.9567,0.9571,0.9566,0.9567,0.9567,0.9577,0.9577,0.9578,0.9571,0.9571,0.9571,0.9576,0,0.9534,0.9541,0.954,0.9546,0.9549,0.9548,0.9552,0.9554,0.9555,0.9559,0.956,0.9564,0.9563,0.9565,0.9568,0.957,0.9573,0.957,0.9575,0.9575,0.9573,0.9579,0.958,0.9584,0.9577,0.9577,0.9577,0,0.9544,0.9546,0.9552,0.9553,0.9554,0.9557,0.956,0.9563,0.9565,0.9566,0.9568,0.9569,0.9573,0.9571,0.9577,0.9574,0.9576,0.9578,0.9578,0.9579,0.9577,0.958,0.9586,0.9586,0.9579,0.9578,0.9578,0,0.955,0.9554,0.9558,0.9559,0.9561,0.9562,0.9563,0.9566,0.9567,0.957,0.9571,0.9575,0.9577,0.958,0.9581,0.9579,0.9586,0.9585,0.9587,0.9587,0.9589,0.9589,0.9595,0.959,0.959,0.959,0.959,0,0.9558,0.9561,0.956,0.9563,0.9566,0.9566,0.957,0.9571,0.9573,0.9575,0.9575,0.9578,0.9579,0.9582,0.9583,0.9587,0.9588,0.9589,0.9589,0.9589,0.9589,0.9591,0.9591,0.9591,0.9591,0.959,0.959,0,0.9565,0.9565,0.9569,0.9569,0.9569,0.9572,0.9573,0.9575,0.9576,0.9579,0.958,0.9581,0.9584,0.9586,0.959,0.9591,0.9596,0.9596,0.9594,0.9595,0.9597,0.9596,0.9605,0.9605,0.96,0.96,0.96,0,0.957,0.9573,0.9573,0.9574,0.9575,0.9577,0.9578,0.9578,0.958,0.9582,0.9584,0.9586,0.9589,0.9594,0.9596,0.9599,0.9599,0.9601,0.96,0.9599,0.9599,0.9598,0.9598,0.9602,0.9602,0.9602,0.9602,0,0.9579,0.9578,0.958,0.9581,0.9582,0.9583,0.9585,0.9586,0.9586,0.9587,0.959,0.9592,0.9595,0.9598,0.9601,0.9602,0.9602,0.9602,0.9603,0.9603,0.9602,0.9602,0.9595,0.9603,0.9603,0.9602,0.9602,0.9602,0.9585,0.9587,0.9587,0.9589,0.9589,0.959,0.9592,0.9592,0.9594,0.9596,0.9595,0.9598,0.96,0.9603,0.9605,0.9607,0.9606,0.9608,0.9608,0.9608,0.9608,0.9601,0.9608,0.9608,0.9608,0.9608,0.9608,0,0.9594,0.9593,0.9595,0.9596,0.9597,0.9595,0.9596,0.9597,0.9599,0.96,0.9602,0.9604,0.9607,0.9608,0.961,0.9612,0.9612,0.9613,0.9613,0.9613,0.9609,0.9608,0.9612,0.9612,0.9612,0.9612,0.9612,0.9612,0.9598,0.9601,0.96,0.9603,0.9602,0.9604,0.9605,0.9605,0.9606,0.9608,0.961,0.961,0.9611,0.9613,0.9615,0.9616,0.9616,0.9617,0.9617,0.9614,0.9613,0.9613,0.9612,0.9617,0.9617,0.9621,0.9621,0.9621]}]]